TimeCDT,TemperatureF,Dew PointF,Humidity,Sea Level PressureIn,VisibilityMPH,Wind Direction,Wind SpeedMPH,Gust SpeedMPH,PrecipitationIn,Events,Conditions,WindDirDegrees,DateUTC
12:53 AM,70.0,57.0,63,29.97,10.0,South,12.7,-,N/A,,Clear,180,2013-05-09 05:53:00
1:53 AM,68.0,57.9,70,29.96,10.0,South,16.1,21.9,N/A,,Clear,180,2013-05-09 06:53:00
2:53 AM,66.0,59.0,78,29.95,10.0,South,12.7,-,N/A,,Partly Cloudy,180,2013-05-09 07:53:00
3:13 AM,64.4,59.0,83,29.98,10.0,South,10.4,-,N/A,,Mostly Cloudy,190,2013-05-09 08:13:00
3:30 AM,66.2,60.8,83,29.98,10.0,South,10.4,-,N/A,,Overcast,190,2013-05-09 08:30:00
3:53 AM,66.0,60.1,81,29.96,10.0,South,10.4,-,N/A,,Mostly Cloudy,180,2013-05-09 08:53:00
4:31 AM,64.4,60.8,88,29.96,10.0,South,10.4,-,N/A,,Scattered Clouds,170,2013-05-09 09:31:00
4:53 AM,64.9,61.0,87,29.94,10.0,South,10.4,-,N/A,,Scattered Clouds,170,2013-05-09 09:53:00
5:02 AM,64.4,60.8,88,29.96,10.0,South,10.4,-,N/A,,Mostly Cloudy,170,2013-05-09 10:02:00
5:53 AM,66.0,61.0,84,29.95,10.0,SSE,6.9,-,N/A,,Overcast,160,2013-05-09 10:53:00
6:23 AM,66.2,60.8,83,29.98,10.0,SSE,9.2,-,N/A,,Overcast,150,2013-05-09 11:23:00
6:53 AM,66.0,61.0,84,29.97,9.0,SSE,6.9,-,N/A,,Overcast,160,2013-05-09 11:53:00
7:12 AM,64.4,62.6,94,30.00,5.0,South,4.6,-,0.00,Rain,Light Rain,170,2013-05-09 12:12:00
7:53 AM,64.9,63.0,93,29.99,3.0,SE,8.1,-,0.00,Rain,Light Rain,140,2013-05-09 12:53:00
8:01 AM,64.4,62.6,94,30.00,3.0,SSE,8.1,-,0.00,,Overcast,150,2013-05-09 13:01:00
8:39 AM,66.2,62.6,88,30.00,2.5,SSE,8.1,-,0.00,,Overcast,150,2013-05-09 13:39:00
8:50 AM,66.2,64.4,94,30.01,4.0,SSE,9.2,-,0.00,,Overcast,150,2013-05-09 13:50:00
8:53 AM,66.0,64.0,93,29.99,4.0,SSE,8.1,-,0.00,,Overcast,150,2013-05-09 13:53:00
9:19 AM,66.2,64.4,94,30.02,4.0,SSE,5.8,-,N/A,,Overcast,150,2013-05-09 14:19:00
9:53 AM,66.9,64.0,90,30.01,9.0,SSE,6.9,-,N/A,,Overcast,150,2013-05-09 14:53:00
10:03 AM,68.0,64.4,88,30.02,10.0,SE,6.9,-,N/A,,Overcast,140,2013-05-09 15:03:00
10:22 AM,68.0,64.4,88,30.03,10.0,SE,8.1,-,N/A,,Overcast,140,2013-05-09 15:22:00
10:41 AM,69.8,64.4,83,30.03,10.0,SSE,9.2,-,N/A,,Mostly Cloudy,150,2013-05-09 15:41:00
10:53 AM,70.0,66.0,87,30.01,10.0,SSE,10.4,-,N/A,,Scattered Clouds,160,2013-05-09 15:53:00
11:19 AM,71.6,66.2,83,30.02,10.0,South,11.5,-,N/A,,Mostly Cloudy,170,2013-05-09 16:19:00
11:43 AM,71.6,64.4,78,30.03,10.0,SSE,10.4,-,N/A,,Overcast,160,2013-05-09 16:43:00
11:53 AM,72.0,64.9,78,30.02,10.0,SSE,9.2,-,N/A,,Overcast,160,2013-05-09 16:53:00
12:53 PM,73.0,64.9,76,29.99,10.0,South,12.7,-,N/A,,Overcast,170,2013-05-09 17:53:00
1:53 PM,73.9,66.0,76,29.97,10.0,South,8.1,-,N/A,,Scattered Clouds,170,2013-05-09 18:53:00
2:53 PM,73.9,66.0,76,29.97,10.0,SSE,6.9,-,N/A,,Partly Cloudy,150,2013-05-09 19:53:00
3:53 PM,73.0,66.9,81,29.96,9.0,South,4.6,-,0.01,Rain,Light Rain,170,2013-05-09 20:53:00
4:00 PM,73.4,68.0,83,29.98,9.0,South,5.8,-,0.01,Rain,Light Rain,170,2013-05-09 21:00:00
4:07 PM,71.6,68.0,88,29.97,8.0,SSE,4.6,-,0.01,Rain,Light Rain,160,2013-05-09 21:07:00
4:53 PM,72.0,68.0,87,29.95,7.0,Calm,Calm,-,0.03,Rain,Light Rain,0,2013-05-09 21:53:00
5:53 PM,71.1,69.1,93,29.94,4.0,NE,4.6,-,0.09,Rain,Rain,40,2013-05-09 22:53:00
6:58 PM,69.8,68.0,94,29.89,2.5,SE,24.2,-,0.02,Rain,Heavy Rain,140,2013-05-09 23:58:00
7:12 PM,69.8,68.0,94,29.88,4.0,ESE,21.9,29.9,0.05,Rain,Light Rain,120,2013-05-10 00:12:00
7:53 PM,68.0,63.0,84,29.85,10.0,SE,12.7,20.7,0.05,,Partly Cloudy,140,2013-05-10 00:53:00
8:53 PM,66.9,63.0,87,29.88,10.0,SE,10.4,-,N/A,,Clear,140,2013-05-10 01:53:00
9:53 PM,66.9,63.0,87,29.89,10.0,SE,8.1,-,N/A,,Clear,140,2013-05-10 02:53:00
10:18 PM,66.2,64.4,94,29.92,10.0,SSE,5.8,-,N/A,,Partly Cloudy,150,2013-05-10 03:18:00
10:53 PM,68.0,64.9,90,29.91,10.0,SE,8.1,-,N/A,,Mostly Cloudy,140,2013-05-10 03:53:00
11:19 PM,66.2,64.4,94,29.95,10.0,Calm,Calm,-,N/A,,Overcast,0,2013-05-10 04:19:00
11:44 PM,68.0,66.2,94,29.94,9.0,SSW,5.8,-,N/A,,Overcast,200,2013-05-10 04:44:00
11:53 PM,68.0,66.0,93,29.92,9.0,SSW,5.8,-,N/A,,Overcast,210,2013-05-10 04:53:00